Location: Seattle
(47.6064°N, 122.3308°W)
Time: 00:19:03
(UTC-08:00)

Tiros 1 - Pass Details

Date: 27 November 2020
Orbit: 630 x 663 km, 48.4° (Epoch: 28 January)

Event Time Altitude Azimuth Distance (km) Brightness Sun altitude
Rises 16:07:07 0° 228° (SW) 2,985 13.3 1.2°
Reaches altitude 10° 16:09:33 10° 222° (SW) 2,074 11.6 0.9°
Maximum altitude 16:14:05 44° 151° (SSE) 909 8.0 0.3°
Drops below altitude 10° 16:18:38 10° 80° (E) 2,071 9.2 -0.4°
Sets 16:21:03 0° 74° (ENE) 2,980 9.9 -0.7°
Enters shadow 16:21:04 - 74° (ENE) 2,986 9.9 -0.7°
